This is the latest recevied weather packets stored in our database for station/object N1ICS-1. If no packets are shown the sender has not sent any weather packets the latest 10 day(s).
| Time | Temp. | Humidity | Pressure | Rain* | Wind** | Luminosity | Snow |
|---|---|---|---|---|---|---|---|
| 1777596602 | 9.44° C | 77% | 1015.9 hPa | 0 mm | - | 0 W/m² | - |
| 1777596302 | 9.44° C | 76% | 1015.9 hPa | 0 mm | - | 1 W/m² | - |
| 1777596001 | 9.44° C | 75% | 1015.8 hPa | 0 mm | - | 2 W/m² | - |
| 1777595702 | 9.44° C | 76% | 1015.8 hPa | 0 mm | - | 4 W/m² | - |
| 1777595402 | 10° C | 79% | 1015.7 hPa | 0 mm | - | 6 W/m² | - |
| 1777595102 | 10° C | 75% | 1015.8 hPa | 0 mm | - | 9 W/m² | - |
| 1777594802 | 11.11° C | 74% | 1015.8 hPa | 0 mm | - | 13 W/m² | - |
| 1777594502 | 11.67° C | 69% | 1015.8 hPa | 0 mm | - | 19 W/m² | - |
| 1777594202 | 11.67° C | 65% | 1015.8 hPa | 0 mm | - | 28 W/m² | - |
| 1777593902 | 12.22° C | 62% | 1015.8 hPa | 0 mm | - | 31 W/m² | - |
| 1777593603 | 12.22° C | 61% | 1015.8 hPa | 0 mm | - | 32 W/m² | - |
| 1777593302 | 12.22° C | 63% | 1015.9 hPa | 0 mm | - | 34 W/m² | - |
| 1777593002 | 12.22° C | 63% | 1015.9 hPa | 0 mm | - | 32 W/m² | - |
| 1777592702 | 12.22° C | 59% | 1015.9 hPa | 0 mm | - | 33 W/m² | - |
| 1777592401 | 12.22° C | 57% | 1015.7 hPa | 0 mm | - | 37 W/m² | - |
| 1777592102 | 12.22° C | 55% | 1016 hPa | 0 mm | - | 46 W/m² | - |
| 1777591802 | 12.22° C | 57% | 1015.9 hPa | 0 mm | - | 54 W/m² | - |
| 1777591502 | 12.22° C | 56% | 1015.8 hPa | 0 mm | - | 54 W/m² | - |
| 1777591201 | 12.22° C | 53% | 1015.8 hPa | 0 mm | - | 62 W/m² | - |
| 1777590902 | 12.22° C | 57% | 1015.9 hPa | 0 mm | - | 84 W/m² | - |
| 1777590602 | 12.78° C | 52% | 1015.9 hPa | 0 mm | - | 84 W/m² | - |
| 1777590302 | 12.78° C | 53% | 1016.2 hPa | 0 mm | - | 134 W/m² | - |
| 1777590002 | 13.33° C | 51% | 1016 hPa | 0 mm | - | 113 W/m² | - |
| 1777589701 | 13.33° C | 52% | 1016 hPa | 0 mm | - | 180 W/m² | - |
| 1777589402 | 12.78° C | 52% | 1016.3 hPa | 0 mm | - | 153 W/m² | - |
* Rain latest hour (hover to see other rain measurements)
** Current wind speed in m/s (hover to see current wind gust speed)